Location: Charleville
(26.4021°S, 146.2454°E)
Time: 04:27:54
(UTC+10:00)

Hubble Space Telescope - Pass Details

Date: 30 November 2021
Orbit: 534 x 538 km, 28.5° (Epoch: 26 January)

Event Time Altitude Azimuth Distance (km) Brightness Sun altitude
Rises 19:52:00 0° 263° (W) 2,689 5.6 -12.4°
Reaches altitude 10° 19:54:25 10° 272° (W) 1,794 4.3 -12.8°
Maximum altitude 19:58:12 34° 337° (NNW) 891 1.8 -13.5°
Enters shadow 20:00:23 20° 29° (NNE) 1,263 2.1 -13.9°
